Stations météo

réclame
Mon MeteoGroup
Albi, France (7632): Température de l'air & dewpoint: 11.07.2019 18:00:00 - 17.07.2019 18:00:00 (CEST)Albi, France (7632): Température de l'air 5cm: 11.07.2019 18:00:00 - 17.07.2019 18:00:00 (CEST)Albi, France (7632): Température de l'air -20cm & Température de l'air -100cm: 11.07.2019 18:00:00 - 17.07.2019 18:00:00 (CEST)Albi, France (7632): Vitesse du vent & gusts: 11.07.2019 18:00:00 - 17.07.2019 18:00:00 (CEST)Albi, France (7632): Direction du vent: 11.07.2019 18:00:00 - 17.07.2019 18:00:00 (CEST)Albi, France (7632): reduced air pressure: 11.07.2019 18:00:00 - 17.07.2019 18:00:00 (CEST)Albi, France (7632): visibility: 11.07.2019 18:00:00 - 17.07.2019 18:00:00 (CEST)Albi, France (7632): Ensoleillement: 11.07.2019 18:00:00 - 17.07.2019 18:00:00 (CEST)Albi, France (7632): Quantités de précipitations: 11.07.2019 18:00:00 - 17.07.2019 18:00:00 (CEST)
Date & Time tt [°C] td [°C] tt 5cm [°C] tt -20cm [°C] tt -100cm [°C] ff [km/h] ff [knt] fx [km/h] fx [knt] dd ppp [hPa] vv [km] sd [min] rr [mm]
17.07.2019 18:00:00 30,2 8,6 33,7 23,2 20,4 18 10 36 20 W 1012,7 20 60 0,0
17.07.2019 17:00:00 30,4 9,3 34,3 23,1 20,4 16 9 33 18 W 1013,2 20 58 0,0
17.07.2019 16:00:00 29,1 9,8 32,3 23,0 20,4 17 9 36 19 WNW 1013,8 20 40 0,0
17.07.2019 15:00:00 30,2 9,1 34,8 23,0 20,4 16 9 32 18 WSW 1013,8 20 60 0,0
17.07.2019 14:00:00 29,3 12,3 33,7 22,9 20,4 9 5 31 17 WSW 1014,4 20 60 0,0
17.07.2019 13:00:00 27,4 12,2 34,1 23,0 20,4 10 5 24 13 WSW 1015,0 20 60 0,0
17.07.2019 12:00:00 25,4 12,3 31,2 23,0 20,4 8 5 16 8 SSW 1015,3 20 60 0,0
17.07.2019 11:00:00 23,6 12,6 28,0 23,0 20,4 5 3 16 8 S 1015,5 20 60 0,0
17.07.2019 10:00:00 21,3 12,4 23,4 23,1 20,4 7 4 14 8 SW 1016,1 20 60 0,0
17.07.2019 09:00:00 19,8 12,5 22,2 23,2 20,4 6 3 11 6 SSW 1016,2 20 60 0,0
17.07.2019 08:00:00 18,3 11,4 15,6 23,3 20,4 2 1 5 3 E 1016,1 20 52 0,0
17.07.2019 07:00:00 15,4 11,2 12,8 23,3 20,4 0 0 4 2 N 1016,1 20 12 0,0
17.07.2019 06:00:00 15,0 11,0 12,9 23,4 20,4 0 0 5 3 N 1015,7 17 0 0,0
17.07.2019 05:00:00 15,3 10,7 13,2 23,5 20,4 0 0 3 2 N 1015,6 20 0 0,0
17.07.2019 04:00:00 15,9 11,3 13,6 23,5 20,4 0 0 5 3 N 1015,4 20 0 0,0
17.07.2019 03:00:00 16,8 9,9 14,3 23,6 20,4 0 0 6 3 N 1015,4 20 0 0,0
17.07.2019 02:00:00 17,6 10,7 15,5 23,6 20,4 5 3 6 4 ENE 1015,6 20 0 0,0
17.07.2019 01:00:00 19,2 9,7 16,0 23,6 20,4 0 0 5 3 N 1015,8 20 0 0,0
17.07.2019 00:00:00 21,2 9,1 17,2 23,6 20,4 2 1 5 3 S 1015,7 20 0 0,0
16.07.2019 23:00:00 22,2 9,4 19,9 23,5 20,4 5 3 10 6 SW 1015,2 20 0 0,0
16.07.2019 22:00:00 23,9 9,8 22,2 23,5 20,4 8 4 13 7 SW 1014,9 20 6 0,0
16.07.2019 21:00:00 27,5 8,9 27,8 23,4 20,4 11 6 22 12 WSW 1014,2 20 60 0,0
16.07.2019 20:00:00 29,6 7,5 31,4 23,3 20,4 15 8 25 14 WSW 1013,9 20 60 0,0
16.07.2019 19:00:00 30,3 6,2 33,9 23,2 20,4 11 6 23 12 WSW 1013,8 20 57 0,0
16.07.2019 18:00:00 30,7 6,5 34,7 23,1 20,4 15 8 29 16 WSW 1014,1 20 57 0,0
16.07.2019 17:00:00 29,7 7,6 31,9 23,0 20,4 6 3 22 12 S 1014,6 20 42 0,0
16.07.2019 16:00:00 29,8 8,2 35,5 22,9 20,4 10 5 28 15 SSW 1014,9 20 60 0,0
16.07.2019 15:00:00 29,3 7,8 35,0 22,9 20,4 9 5 27 14 WSW 1015,3 20 60 0,0
16.07.2019 14:00:00 28,2 8,5 32,4 22,9 20,4 14 8 29 15 W 1015,7 20 60 0,0
16.07.2019 13:00:00 27,2 8,1 34,2 22,9 20,4 9 5 19 10 W 1016,0 20 60 0,0
16.07.2019 12:00:00 25,6 9,0 31,2 22,9 20,4 8 5 19 10 W 1016,4 20 60 0,0
16.07.2019 11:00:00 24,2 9,7 28,2 23,0 20,4 3 2 13 7 SSE 1016,6 20 60 0,0
16.07.2019 10:00:00 21,4 10,5 24,9 23,1 20,4 4 2 12 7 WSW 1017,1 20 60 0,0
16.07.2019 09:00:00 19,8 10,8 20,0 23,1 20,4 2 1 6 3 SE 1017,3 20 60 0,0
16.07.2019 08:00:00 17,0 11,3 14,2 23,2 20,4 3 1 6 4 E 1017,2 20 60 0,0
16.07.2019 07:00:00 14,1 11,1 12,0 23,3 20,4 6 3 8 5 E 1017,0 20 13 0,0
16.07.2019 06:00:00 13,6 10,6 12,4 23,4 20,4 7 4 9 5 E 1017,0 20 0 0,0
16.07.2019 05:00:00 14,4 11,0 12,6 23,4 20,4 7 4 9 5 ENE 1016,8 20 0 0,0
16.07.2019 04:00:00 15,8 11,2 12,8 23,5 20,4 4 2 5 3 E 1016,8 20 0 0,0
16.07.2019 03:00:00 16,4 11,1 13,4 23,5 20,4 2 1 7 4 E 1016,8 20 0 0,0
16.07.2019 02:00:00 18,0 10,6 14,8 23,6 20,4 0 0 7 4 N 1016,6 20 0 0,0
16.07.2019 01:00:00 19,6 10,3 16,8 23,6 20,4 5 3 13 7 E 1016,4 20 0 0,0
16.07.2019 00:00:00 20,4 9,6 18,9 23,6 20,4 6 4 10 5 SW 1016,0 20 0 0,0
15.07.2019 23:00:00 21,4 9,3 20,2 23,6 20,4 8 4 16 8 WSW 1015,6 20 0 0,0
15.07.2019 22:00:00 22,9 9,3 21,3 23,5 20,4 8 5 16 8 WSW 1014,9 20 7 0,0
15.07.2019 21:00:00 27,2 6,6 27,2 23,5 20,4 10 6 29 16 NW 1013,9 20 60 0,0
15.07.2019 20:00:00 28,1 6,8 29,5 23,4 20,3 16 9 28 15 WNW 1013,3 20 57 0,0
15.07.2019 19:00:00 28,7 6,7 29,3 23,3 20,3 15 8 32 17 NW 1013,1 20 44 0,0
15.07.2019 18:00:00 29,3 6,6 32,1 23,2 20,3 19 11 35 19 WNW 1013,0 20 55 0,0
15.07.2019 17:00:00 28,8 6,2 30,6 23,2 20,3 17 9 35 19 NW 1012,9 20 51 0,0
15.07.2019 16:00:00 28,3 5,8 34,1 23,1 20,3 19 11 41 22 NNW 1012,9 20 60 0,0
15.07.2019 15:00:00 28,0 5,5 32,9 23,1 20,4 19 10 39 21 NW 1012,9 20 60 0,0
15.07.2019 14:00:00 27,7 5,3 30,9 23,1 20,3 16 8 37 20 WNW 1013,3 20 60 0,0
15.07.2019 13:00:00 26,1 5,1 31,2 23,1 20,3 15 8 35 19 NW 1013,7 20 60 0,0
15.07.2019 12:00:00 24,9 5,1 28,8 23,2 20,4 16 8 30 16 WNW 1014,0 20 60 0,0
15.07.2019 11:00:00 23,5 8,0 28,1 23,2 20,3 15 8 29 16 W 1014,5 20 60 0,0
15.07.2019 10:00:00 22,4 9,2 24,3 23,3 20,3 6 4 16 8 NNW 1014,7 20 60 0,0
15.07.2019 09:00:00 20,0 9,5 21,0 23,4 20,3 6 4 14 8 WNW 1014,9 20 60 0,0
15.07.2019 08:00:00 17,8 10,2 15,2 23,5 20,3 7 4 9 5 WSW 1014,8 20 60 0,0
15.07.2019 07:00:00 15,0 9,8 12,7 23,6 20,3 0 0 3 2 N 1014,8 20 13 0,0
15.07.2019 06:00:00 16,6 9,0 14,2 23,6 20,3 3 2 11 6 E 1014,1 20 0 0,0
15.07.2019 05:00:00 17,9 8,5 14,0 23,7 20,3 5 3 12 6 NW 1013,7 20 0 0,0
15.07.2019 04:00:00 17,4 9,0 16,0 23,7 20,3 4 2 8 5 W 1013,7 20 0 0,0
15.07.2019 03:00:00 20,1 7,5 16,2 23,8 20,3 5 3 10 6 NNW 1013,6 20 0 0,0
15.07.2019 02:00:00 21,1 7,3 19,1 23,8 20,3 6 3 13 7 NW 1013,3 20 0 0,0
15.07.2019 01:00:00 21,3 7,9 19,6 23,9 20,3 3 2 10 5 WSW 1013,1 20 0 0,0
15.07.2019 00:00:00 22,1 8,9 20,7 23,8 20,3 5 3 16 9 WSW 1012,9 20 0 0,0
14.07.2019 23:00:00 24,1 8,5 23,1 23,8 20,3 8 5 22 12 W 1012,4 20 0 0,0
14.07.2019 22:00:00 25,9 7,9 24,9 23,8 20,3 11 6 27 15 W 1011,4 20 8 0,0
14.07.2019 21:00:00 28,3 7,0 28,0 23,7 20,3 15 8 24 13 WNW 1010,5 20 47 0,0
14.07.2019 20:00:00 28,5 6,6 28,1 23,6 20,3 13 7 34 18 WNW 1010,2 20 7 0,0
14.07.2019 19:00:00 30,6 7,7 31,2 23,5 20,3 20 11 35 19 W 1009,8 20 48 0,0
14.07.2019 18:00:00 30,7 7,8 31,9 23,4 20,3 17 9 33 18 W 1010,0 20 45 0,0
14.07.2019 17:00:00 30,1 6,0 35,3 23,4 20,3 13 7 28 15 WNW 1010,3 20 60 0,0
14.07.2019 16:00:00 30,1 6,0 35,2 23,3 20,3 12 7 36 19 NNW 1010,6 20 60 0,0
14.07.2019 15:00:00 30,1 6,0 34,7 23,2 20,2 15 8 29 16 WNW 1010,7 20 60 0,0
14.07.2019 14:00:00 29,0 5,8 34,2 23,2 20,3 14 8 28 15 W 1011,1 20 60 0,0
14.07.2019 13:00:00 28,0 6,7 34,1 23,2 20,3 12 6 25 14 NNW 1011,7 20 60 0,0
14.07.2019 12:00:00 27,5 9,3 33,1 23,2 20,2 4 2 16 9 WSW 1012,0 20 60 0,0
14.07.2019 11:00:00 25,3 8,3 30,8 23,3 20,3 6 3 13 7 W 1012,6 18 60 0,0
14.07.2019 10:00:00 23,5 11,2 25,6 23,4 20,3 3 2 9 5 W 1012,9 20 60 0,0
14.07.2019 09:00:00 21,4 10,5 21,3 23,5 20,3 6 4 14 7 E 1013,2 20 60 0,0
14.07.2019 08:00:00 18,9 12,6 17,6 23,5 20,2 6 3 9 5 E 1013,2 20 60 0,0
14.07.2019 07:00:00 17,8 12,0 14,6 23,6 20,3 4 2 8 4 NNE 1013,4 20 14 0,0
14.07.2019 06:00:00 17,1 11,6 14,7 23,6 20,3 4 2 9 5 E 1013,2 20 0 0,0
14.07.2019 05:00:00 17,8 12,5 16,1 23,7 20,2 6 4 13 7 E 1013,4 20 0 0,0
14.07.2019 04:00:00 18,5 13,1 16,5 23,8 20,3 8 4 11 6 ENE 1013,6 20 0 0,0
14.07.2019 03:00:00 18,8 13,6 17,2 23,8 20,2 7 4 10 6 E 1013,8 20 0 0,0
14.07.2019 02:00:00 20,0 14,4 17,9 23,8 20,2 9 5 14 7 E 1013,6 20 0 0,0
14.07.2019 01:00:00 20,7 14,3 17,9 23,8 20,2 4 2 8 4 NE 1013,4 20 0 0,0
14.07.2019 00:00:00 21,7 14,1 18,4 23,8 20,2 3 2 8 4 N 1013,4 20 0 0,0
13.07.2019 23:00:00 22,9 13,1 19,6 23,8 20,2 2 1 4 2 ESE 1013,3 20 0 0,0
13.07.2019 22:00:00 25,3 11,8 21,7 23,7 20,2 0 0 9 5 N 1013,2 20 8 0,0
13.07.2019 21:00:00 28,4 9,6 27,5 23,6 20,2 5 3 16 9 NNW 1012,9 20 5 0,0
13.07.2019 20:00:00 30,0 9,0 30,8 23,6 20,2 11 6 33 18 NNW 1012,5 20 48 0,0
13.07.2019 19:00:00 31,5 12,3 34,7 23,5 20,2 14 8 32 17 W 1012,5 20 60 0,0
13.07.2019 18:00:00 31,1 12,5 34,0 23,4 20,2 21 11 34 18 WSW 1013,3 20 55 0,0
13.07.2019 17:00:00 31,2 12,5 31,8 23,3 20,2 12 7 36 19 WNW 1013,7 20 42 0,0
13.07.2019 16:00:00 30,8 13,1 34,7 23,2 20,2 10 5 32 17 W 1014,4 20 53 0,0
13.07.2019 15:00:00 29,5 12,9 35,6 23,2 20,2 17 9 31 17 W 1014,9 20 60 0,0
13.07.2019 14:00:00 29,1 14,5 30,5 23,1 20,2 10 6 32 17 WSW 1015,9 20 36 0,0
13.07.2019 13:00:00 28,0 15,6 31,0 23,1 20,2 16 9 32 18 SW 1016,4 20 50 0,0
13.07.2019 12:00:00 27,3 12,9 27,5 23,2 20,2 17 9 27 15 W 1016,7 20 47 0,0
13.07.2019 11:00:00 25,8 14,3 27,9 23,2 20,2 12 6 22 12 W 1017,2 20 48 0,0
13.07.2019 10:00:00 24,0 17,0 26,8 23,3 20,2 7 4 14 7 WNW 1017,4 20 51 0,0
13.07.2019 09:00:00 22,5 17,2 21,9 23,3 20,2 8 4 11 6 WSW 1017,8 20 45 0,0
13.07.2019 08:00:00 20,5 16,7 18,2 23,4 20,2 8 4 11 6 WSW 1017,8 20 40 0,0
13.07.2019 07:00:00 18,6 16,0 17,4 23,4 20,2 5 3 8 5 WSW 1017,6 20 7 0,0
13.07.2019 06:00:00 18,3 15,7 16,4 23,5 20,3 5 3 7 4 WSW 1017,2 20 0 0,0
13.07.2019 05:00:00 18,9 15,6 17,9 23,5 20,2 3 2 8 5 SSW 1017,2 20 0 0,0
13.07.2019 04:00:00 19,8 15,6 17,7 23,6 20,3 4 2 6 3 WSW 1017,2 20 0 0,0
13.07.2019 03:00:00 20,1 15,7 17,9 23,6 20,2 3 1 5 3 S 1017,4 20 0 0,0
13.07.2019 02:00:00 21,1 15,4 18,4 23,6 20,2 0 0 5 3 N 1017,5 20 0 0,0
13.07.2019 01:00:00 21,7 15,3 19,5 23,6 20,2 4 2 6 4 SSW 1017,6 20 0 0,0
13.07.2019 00:00:00 23,0 14,8 21,2 23,6 20,3 2 1 9 5 W 1017,2 20 0 0,0
12.07.2019 23:00:00 25,3 14,1 24,3 23,6 20,2 6 3 14 8 W 1016,6 20 0 0,0
12.07.2019 22:00:00 26,8 13,2 25,4 23,5 20,2 9 5 22 12 NW 1015,6 20 9 0,0
12.07.2019 21:00:00 28,8 12,2 29,0 23,5 20,2 13 7 29 15 WNW 1015,0 20 60 0,0
12.07.2019 20:00:00 29,8 11,3 31,8 23,4 20,2 20 11 32 18 W 1014,8 20 60 0,0
12.07.2019 19:00:00 30,7 11,6 33,9 23,3 20,2 20 11 36 20 W 1014,6 20 60 0,0
12.07.2019 18:00:00 31,3 11,1 35,3 23,2 20,2 19 10 34 18 WSW 1014,5 20 60 0,0
12.07.2019 17:00:00 31,6 9,8 35,3 23,2 20,2 17 9 34 19 WSW 1014,8 20 60 0,0
12.07.2019 16:00:00 30,5 9,4 35,2 23,1 20,2 17 9 32 17 W 1015,6 20 60 0,0
12.07.2019 15:00:00 29,5 9,6 34,5 23,1 20,2 14 8 33 18 W 1016,1 20 60 0,0
12.07.2019 14:00:00 29,2 8,8 33,2 23,1 20,2 16 9 36 19 WSW 1016,5 20 60 0,0
12.07.2019 13:00:00 27,8 7,6 32,4 23,1 20,2 13 7 31 17 W 1016,9 20 60 0,0
12.07.2019 12:00:00 26,8 10,9 32,0 23,1 20,2 14 8 29 16 WSW 1017,3 20 60 0,0
12.07.2019 11:00:00 25,1 13,0 29,6 23,2 20,2 10 6 18 10 WSW 1017,4 20 60 0,0
12.07.2019 10:00:00 22,9 13,1 25,5 23,3 20,3 8 5 15 8 WSW 1017,8 20 60 0,0
12.07.2019 09:00:00 20,4 13,8 22,8 23,3 20,2 8 5 13 7 SW 1017,7 20 60 0,0
12.07.2019 08:00:00 19,3 15,0 17,0 23,4 20,3 5 3 9 5 WSW 1017,4 20 60 0,0
12.07.2019 07:00:00 16,5 14,9 15,1 23,5 20,2 0 0 4 2 N 1016,9 20 5 0,0
12.07.2019 06:00:00 16,5 14,3 14,7 23,6 20,3 4 2 5 3 WSW 1016,4 20 0 0,0
12.07.2019 05:00:00 17,6 15,0 15,3 23,6 20,2 0 0 2 1 N 1015,9 20 0 0,0
12.07.2019 04:00:00 18,2 14,9 16,0 23,7 20,3 2 1 4 2 W 1016,0 20 0 0,0
12.07.2019 03:00:00 18,8 14,7 16,1 23,7 20,2 2 1 4 2 SW 1015,7 20 0 0,0
12.07.2019 02:00:00 19,8 14,2 16,4 23,7 20,2 0 0 8 5 N 1015,7 20 0 0,0
12.07.2019 01:00:00 21,3 13,5 18,8 23,8 20,2 7 4 15 8 W 1015,5 20 0 0,0
12.07.2019 00:00:00 22,2 13,3 19,8 23,8 20,3 4 2 9 5 SSW 1015,3 20 0 0,0
11.07.2019 23:00:00 23,2 13,4 21,8 23,7 20,2 6 3 9 5 WSW 1015,2 20 0 0,0
11.07.2019 22:00:00 25,1 12,7 23,5 23,7 20,2 6 3 15 8 WSW 1014,4 20 9 0,0
11.07.2019 21:00:00 28,7 11,3 29,2 23,6 20,2 13 7 26 14 W 1013,6 20 60 0,0
11.07.2019 20:00:00 30,3 10,3 32,3 23,5 20,2 16 9 29 16 W 1013,4 20 60 0,0
11.07.2019 19:00:00 31,0 9,8 34,1 23,5 20,3 17 9 29 16 W 1013,0 20 60 0,0
11.07.2019 18:00:00 31,3 10,1 35,7 23,4 20,2 13 7 27 15 W 1013,2 20 60 0,0

tt = Température de l'air
td = dewpoint
tt 5cm = Température de l'air 5cm
tt -20cm = Température de l'air -20cm
tt -100cm = Température de l'air -100cm
ff = Vitesse du vent
fx = gusts
dd = Direction du vent
ppp = reduced air pressure
vv = visibility
sd = Ensoleillement
rr = Quantités de précipitations

stations d'obs. à proximité